Regional Weather Roundup
Issued by NWS Little Rock, AR

Home | Current Version | Previous Version | Graphics & Text | Print | Product List | Glossary On
Versions: 1 2 3 4 5 6 7 8 9 10 11 12 13 14 15 16 17 18 19 20 21 22 23 24 25 26 27 28 29 30 31
000
ASUS44 KLZK 280205
RWRLZK

WEATHER ROUNDUP FOR ARKANSAS
NATIONAL WEATHER SERVICE LITTLE ROCK AR
900 PM CDT MON MAR 27 2017

NOTE: "FAIR" INDICATES FEW OR NO CLOUDS BELOW 12,000 FEET WITH NO
SIGNIFICANT WEATHER AND/OR OBSTRUCTIONS TO VISIBILITY.

ARZ001-003-010-029-280300-
NORTHWEST ARKANSAS

CITY           SKY/WX    TMP DP  RH WIND       PRES   REMARKS
FAYETTEVILLE   CLOUDY    52  49  89 NW5       29.95R
FORT SMITH     CLEAR     57  48  72 N7        29.93R
HARRISON       CLOUDY    55  51  86 NW8       29.93R
BENTONVILLE    CLOUDY    54  48  82 N3        29.96R
ROGERS         CLOUDY    52  48  86 N3        29.96R
SILOAM SPGS    CLOUDY    54  46  76 N6        29.95R
HIGHFILL       CLOUDY    53  49  86 N5        29.94R
SPRINGDALE     CLOUDY    54  50  87 NW7       29.96R
$$

ARZ004-005-016-280300-
NORTH CENTRAL ARKANSAS

CITY           SKY/WX    TMP DP  RH WIND       PRES   REMARKS
BATESVILLE     PTCLDY    64  54  68 NW5       29.89R
FLIPPIN        CLEAR     57  48  72 NW7       29.89R
MTN HOME       PTCLDY    57  52  83 N3        29.90R
$$

ARZ040-041-280300-
WEST CENTRAL ARKANSAS

CITY           SKY/WX    TMP DP  RH WIND       PRES   REMARKS
MENA           CLEAR     59  57  94 CALM      29.92R
MOUNT IDA      CLEAR     61  53  75 CALM      29.88R
$$

ARZ009-017-025-026-028-280300-
NORTHEAST ARKANSAS

CITY           SKY/WX    TMP DP  RH WIND       PRES   REMARKS
CORNING        FAIR      64  57  77 N5        29.87R
JONESBORO      CLEAR     60  56  86 CALM      29.86R
NEWPORT        CLEAR     63  59  87 N3        29.87R
WALNUT RIDGE   CLEAR     63  54  72 N6        29.87R
BLYTHEVILLE    CLEAR     59  58  96 NE3       29.86R
$$

ARZ022-023-033-042-044-280300-
CENTRAL ARKANSAS

CITY           SKY/WX    TMP DP  RH WIND       PRES   REMARKS
LITTLE ROCK    PTCLDY    66  57  72 NW14      29.88R
N LITTLE ROCK    N/A     65  57  75 W6        29.88R
JACKSONVILLE   MOCLDY    68  58  69 W8        29.87R
CONWAY           N/A     64  57  77 NW6       29.87R
SEARCY         MOCLDY    68  59  73 NW3       29.89R
HOT SPRINGS    CLEAR     65  55  70 NW7       29.89R
RUSSELLVILLE   CLEAR     60  53  77 W7        29.89R
CLINTON        MOCLDY    64  55  72 CALM      29.89R
$$

ARZ036-280300-
EAST ARKANSAS

CITY           SKY/WX    TMP DP  RH WIND       PRES   REMARKS
WEST MEMPHIS   CLOUDY    66  62  87 NE8       29.84R
$$

ARZ050-053-066-070-073-280300-
SOUTHWEST ARKANSAS

CITY           SKY/WX    TMP DP  RH WIND       PRES   REMARKS
ARKADELPHIA    FAIR      68  58  70 NW10      29.87R
CAMDEN         CLEAR     72  59  64 CALM      29.86R
TEXARKANA      CLEAR     66  59  78 NW3       29.87R
EL DORADO      CLEAR     66  63  90 CALM      29.86R
DE QUEEN       CLEAR     63  55  75 CALM      29.87R
$$

ARZ056-057-069-280300-
SOUTHEAST ARKANSAS

CITY           SKY/WX    TMP DP  RH WIND       PRES   REMARKS
PINE BLUFF     CLEAR     72  59  63 W5        29.85R
STUTTGART      PTCLDY    68  54  60 NW9       29.86R
MONTICELLO     CLEAR     72  61  68 W5        29.85R

$$






USA.gov is the U.S. government's official web portal to all federal, state and local government web resources and services.